Simultaneous Nadir Overpasses (SNOs) Predictions

Prediction of SNOs between AQUA and METOP-B Satellite Orbit:

Table of predicted SNOs for the next 14.0 days since TLE Epoch: 4/3/2021
Index Date (AQUA) Time (AQUA) Lat,Lon (AQUA) SZA (AQUA ) Date (METOP-B) Time (METOP-B) Lat,Lon (METOP-B) SZA (METOP-B ) Distance(km) Time Diff (sec)
1 04/05/2021 05:18:57 -73.83, -85.49 112.32 04/05/2021 05:18:17 -73.80, -85.48 112.34 2.42 40
2 04/05/2021 06:08:25 73.88, 82.02 67.73 04/05/2021 06:08:55 73.86, 81.99 67.71 2.59 30
3 04/08/2021 00:53:11 -73.84, -19.08 113.37 04/08/2021 00:52:36 -73.84, -18.98 113.37 3.18 35
4 04/08/2021 01:42:40 73.90, 148.41 66.69 04/08/2021 01:43:15 73.90, 148.49 66.68 2.48 35
5 04/10/2021 20:27:25 -73.82, 47.41 114.45 04/10/2021 20:26:57 -73.83, 47.40 114.43 1.55 28
6 04/10/2021 21:16:54 73.88,-145.10 65.61 04/10/2021 21:17:36 73.88,-145.14 65.61 1.09 42
7 04/13/2021 16:01:40 -73.85, 113.78 115.45 04/13/2021 16:01:17 -73.86, 113.89 115.43 3.76 23
8 04/13/2021 16:51:09 73.92, -78.75 64.62 04/13/2021 16:51:56 73.92, -78.64 64.61 3.14 47
9 04/16/2021 10:46:16 73.24, 13.87 62.91 04/16/2021 10:45:09 73.17, 11.40 62.94 79.98 67
10 04/16/2021 11:35:53 -73.84,-179.75 116.47 04/16/2021 11:35:37 -73.85,-179.74 116.46 1.23 16
11 04/16/2021 12:25:22 73.91, -12.29 63.61 04/16/2021 12:26:16 73.90, -12.28 63.59 1.75 54



Historial Predications of SNOs between AQUA and METOP-B
